Regional Weather Roundup
Issued by NWS Wakefield, VA

Home | Current Version | Previous Version | Text Only | Print | Product List | Glossary Off
Versions: 1 2 3 4 5 6 7 8 9 10 11 12 13 14 15 16 17 18 19 20 21 22 23 24 25 26 27 28 29 30 31 32 33 34 35 36 37 38 39 40 41 42 43 44 45 46 47 48 49 50

000
ASUS41 KAKQ 300210
RWRAKQ

REGIONAL WEATHER ROUNDUP
NATIONAL WEATHER SERVICE WAKEFIELD VA
1000 PM EDT TUE JUL 29 2014

Note: "fair" indicates few or no clouds below 12,000 feet with no
significant weather and/or obstructions to visibility. * = Denotes
station may not report precipitation (e.g., rain,snow,etc.),
thunder or fog.

VAZ042-051-052>054-056-300300-
NORTHERN VIRGINIA

CITY           SKY/WX    TMP DP  RH WIND       PRES   REMARKS
WASH NATIONAL  MOCLDY    69  48  47 NW7       30.02R
DULLES         CLEAR     61  47  59 W5        30.02R
FORT BELVOIR   NOT AVBL
QUANTICO       PTCLDY    64  54  69 NW7       30.03R
FREDERICKSBRG* PTCLDY    65  55  69 CALM      30.02R
STAFFORD*      MOCLDY    58  58 100 NW5       30.06R
WARRENTON      PTCLDY    57  57 100 CALM      30.03R
CULPEPER*      PTCLDY   N/A N/A N/A CALM      30.03R
MANASSAS*      NOT AVBL
LEESBURG*      CLEAR     61  54  77 CALM      30.03R
WINCHESTER     CLEAR     61  48  63 W3        30.04R
$$

VAZ048-049-060>072-079>083-300300-
CENTRAL AND SOUTH CENTRAL VIRGINIA...AND NORTH CENTRAL NORTH CAROLINA

CITY           SKY/WX    TMP DP  RH WIND       PRES   REMARKS
RICHMOND       MOCLDY    72  56  57 NE8       30.01R
CHESTERFIELD*  CLOUDY    72  52  49 NE8G16    30.02R
HANOVER        PTCLDY    67  55  65 CALM      30.03R
TAPPAHANNOCK*  PTCLDY    66  52  59 CALM      30.02R
CHARLOTTSVILLE MOCLDY    66  54  65 CALM      30.03R
ORANGE*        CLOUDY    64  50  59 CALM      30.05R
LOUISA*        CLOUDY    66  55  68 NE5       30.02R
FARMVILLE*     CLOUDY    64  57  77 CALM      29.99R
SOUTH HILL*    CLEAR     66  66 100 CALM      30.05R
ROANOKE RAPIDS NOT AVBL
RALEIGH        PTCLDY    68  61  78 CALM      29.99R
$$

VAZ088>098-300300-
SOUTHEAST VIRGINIA

CITY           SKY/WX    TMP DP  RH WIND       PRES   REMARKS
NORFOLK        CLEAR     71  59  65 E3        29.99R
VIRGINIA BEACH CLEAR     69  60  73 E5        29.99R
NORFOLK NAVAL  PTCLDY    72  56  57 E3        30.01R
WEST POINT*    CLOUDY    72  56  57 CALM      30.02R
NEWPORT NEWS   MOCLDY    70  58  65 NE3       30.00R
LANGLEY AFB    NOT AVBL
FORT EUSTIS    NOT AVBL
WILLIAMSBURG*  MOCLDY    72  63  73 CALM      30.01R
FRANKLIN*      CLEAR     64  63  94 CALM      29.99R
WAKEFIELD      CLEAR     65  61  87 CALM      29.99R
$$

VAZ020-022-025-037-045-300300-
WESTERN AND SOUTHWEST VIRGINIA

CITY           SKY/WX    TMP DP  RH WIND       PRES   REMARKS
STAUNTON*      PTCLDY    63  51  65 CALM      30.08R
HOT SPRINGS VA CLEAR     52  46  79 NW10      30.14R
LYNCHBURG      PTCLDY    65  60  84 NE3       30.04R
DANVILLE       MOCLDY    69  62  78 N8        29.99R
MARTINSVILLE   CLOUDY    67  59  76 NW3       30.04R
ROANOKE        PTCLDY    68  51  54 N3        30.06R
BLACKSBURG     PTCLDY    63  55  77 N3          N/A
DUBLIN*        MOCLDY    63  53  69 NW3       30.10R
MARION*        PTCLDY    61  48  63 SW3       30.14R
HILLSVILLE*    MOCLDY    61  51  69 NW8       30.10R
RICHLANDS*     CLEAR     61  52  72 NW5       30.12R
WISE*          CLEAR     57  46  67 NW3       30.14R
ABINGDON*      CLOUDY    62  51  67 CALM      30.11R
$$

MDZ021>025-VAZ099-100-300300-
SOUTHERN MARYLAND AND THE DELMARVA PENINSULA

CITY           SKY/WX    TMP DP  RH WIND       PRES   REMARKS
PATUXENT RIVER PTCLDY    66  51  58 W7        30.00R
BAY BRIDGE APT   N/A     70  52  52 NW8       29.99R
LEONARDTOWN    CLEAR     61  50  67 W3        30.02R
DOVER          CLEAR     68  57  68 W5        29.97R
GEORGETOWN     CLEAR     63  55  75 S8        30.00R
EASTON         NOT AVBL
CAMBRIDGE      CLEAR     63  54  72 CALM      29.99R
SALISBURY      NOT AVBL
OCEAN CITY     CLEAR     57  55  93 CALM      30.00R
WALLOPS ISLAND CLEAR     69  55  60 CALM      30.01R
ACCOMACK*        N/A     64  59  82 CALM      30.00R
$$

NCZ012>017-030>032-300300-
EASTERN NORTH CAROLINA

CITY           SKY/WX    TMP DP  RH WIND       PRES   REMARKS
ELIZABETH CITY CLEAR     70  63  78 E5        29.99R
AHOSKIE*       CLEAR     65  62  91 CALM      30.00R
EDENTON*       CLEAR     69  64  83 E3        29.99R
CURRITUCK*     CLEAR     72  58  60 E5        30.00R
KILL DEVIL HLS CLEAR     73  62  68 NE7       29.99R
MANTEO         NOT AVBL
CAPE HATTERAS  PTCLDY    75  65  70 E8        29.98R
GOLDSBORO      PTCLDY    71  64  79 CALM      29.96R
WASHINGTON     MOCLDY    69  63  79 CALM      29.98R
GREENVILLE     PTCLDY    68  64  88 CALM      30.00R
NEW BERN       CLEAR     75  64  68 E5        29.98R
WILMINGTON     MOCLDY    73  70  90 NE5       29.97R
$$

VAZ048-300300-
ELSEWHERE

CITY           SKY/WX    TMP DP  RH WIND       PRES   REMARKS
HARRISBURG PA  PTCLDY    63  54  72 NW5       30.00R
BALTIMORE      PTCLDY    64  52  64 CALM      29.99R
ANNAPOLIS      CLEAR     70  55  59 N6        30.00R
ANDREWS AFB    CLEAR     67  49  54 NW1       30.01R
WILMINGTON DE  MOCLDY    66  59  78 NW6       29.99R
PHILADELPHIA   CLOUDY    72  54  53 NW8       29.98R
WILDWOOD NJ*   PTCLDY    68  55  64 SW7       29.99R
ATLANTIC CITY  CLOUDY    68  60  75 CALM      29.97R
HENDERSON NC   CLEAR     67  60  77 CALM      29.99R
GREENSBORO     PTCLDY    72  57  59 CALM      29.99R
ROCKY MOUNT    CLEAR     67  61  81 CALM      29.98R
FAYETTEVILLE   CLEAR     73  62  68 NE3       29.97R
CHARLOTTE      PTCLDY    72  56  57 CALM      29.99R
$$

VAZ100-300300-
MARINE

STATION/POSITION TIME  TEMP    WIND        PRES    WAVE   SWELL
                       AIR SEA DIR/SP/G            HT/PER HT/PER
                 (UTC) (F)     (DEG/KT/KT) (MB)    (FT/S) (FT/S)
44066 TX TWR #4  0200   71 75  240/  6/  8 1014.7R   3/ 8   3/ 8
CAPE MAY NJ      0200   72 78  280/  9/ 12 1014.6R
LEWES DE         0200   68 74  260/  4/  5 1014.9S
15NM E FENWICK I 0200   72 76              1015.2R   2/ 8
OCEAN-CITY-INLET 0200   69 71  320/  4/  5 1015.0R
WACHAPREAGUE VA  0200   70 80  350/  1/  2 1015.7R
THOMAS POINT MD  0200   71 78  350/ 12/ 14 1016.0R
GOOSES REEF MD   0200   72     350/ 10/ 12 1016.1R
COVE POINT MD    0200   69     310/  7/  8 1015.7R
SOLOMONS ISLAND  0200      80                N/A
BISHOPS HEAD MD  0200   69 77  340/  6/  7 1015.2R
PINEY POINT MD   0200           10/  8/  9   N/A
POTOMAC MD       0200   72     350/  8/ 10 1015.1R
CAMBRIDGE MD     0200   72 79  320/ 10/ 13 1015.1R
LEWISETTA VA     0200   72 78  350/  8/ 11 1015.9R
RAPPAHANNOCK LGT 0200          350/  9/ 11 1016.2R
STINGRAY PT      0200   75     360/ 12/ 14 1016.3R
YORK RVR RNG VA  0200   75      70/ 10/ 13 1015.1R
YORKTOWN VA      0200   74 79   50/  8/ 10 1015.3R
JAMESTOWN VA     0200   70      90/  4/  6   N/A
DOMINION TERM VA 0200   75      60/  6/  7 1015.4R
KIPTOPEKE VA     0200      82   70/  4/  5   N/A
CHES BAY BRIDGE  0200   74 78   70/  7/ 10 1014.8S
CAPE HENRY VA    0200   74      80/  9/ 10 1014.3R
WILLOUBY STN VA  0200          100/  6/  9 1014.7R
S CRANEY ISL VA  0200           50/  5/  5 1015.4R
CAPE HENRY BUOY  0200      78                N/A     2/ 8
1ST LANDING BUOY 0200   75      80/  8/ 10 1015.0R
CAPE CHARLES BUO 0200      76                N/A     2/ 8
OFFSHORE WE BUOY 0200      78                N/A     2/ 7
64NM E OF VA BCH 0200   74 78   40/ 10/ 12 1015.2R   2/ 7   2/ 7
DUCK PIER NC     0200   74 74   70/ 12/ 13 1014.9R
44056 DUCK FRF   0200                        N/A     2/ 8
OREGON INLET NC  0200   74 79   50/ 10/ 13 1015.3S
HATTERAS NC      0200   76 82   60/ 10/ 13 1015.5R
DIAMOND SHLS NC  0200          VRB 16/ 19  1014.4R   4/ 8   2/ 8
CAPE LOOKOUT NC  0100   77      60/ 15/ 16 1013.8R
$$


USA.gov is the U.S. government's official web portal to all federal, state and local government web resources and services.